Wind_Speed
38 41 41 40 37 36 33 28 26 27 26 16 14 13 11 10 8 3 8 4 18 31 36 43 36 29 32 35 36 34 31 30 30 29 26 25 28 25 27 31 30 32 29 27
28 38 42 45 39 37 38 31 25 25 26 21 13 19 13 15 14 10 9 16 5 25 33 31 39 32 31 31 29 30 31 29 32 31 25 24 29 30 31 37 35 34 32 29
23 31 46 45 45 41 39 31 28 26 27 26 21 15 15 16 14 13 8 7 6 8 22 25 32 35 26 40 34 35 34 30 27 30 33 35 32 33 32 33 31 33 33 32
21 27 38 41 40 39 28 30 30 30 25 29 24 19 15 14 16 14 7 11 11 8 7 9 33 39 27 40 37 34 35 30 33 35 28 29 37 36 33 28 36 39 33 37
18 15 20 34 34 39 36 33 36 35 29 21 26 24 19 16 16 17 12 13 14 12 12 2 6 10 25 31 34 31 37 38 39 31 37 37 34 37 36 34 34 42 44 43
10 14 16 24 34 35 36 43 37 37 33 21 21 24 21 20 20 17 15 17 17 12 10 11 13 17 17 18 26 26 26 29 38 33 35 38 42 41 41 39 33 36 32 30
8 11 18 16 27 31 28 32 38 33 35 23 21 18 17 22 23 19 20 21 20 20 19 16 19 24 20 19 21 18 18 24 31 40 28 33 31 33 30 36 32 30 27 21
4 7 13 16 18 20 20 28 33 31 26 26 22 19 17 19 18 20 22 26 23 21 24 25 20 17 19 22 26 26 24 22 14 23 31 34 33 31 38 32 30 28 26 23
5 8 12 12 15 13 15 22 31 28 24 21 16 10 13 14 14 17 20 15 15 17 22 25 27 23 20 21 24 27 29 28 29 30 19 25 36 27 23 28 27 27 25 27
6 5 4 8 13 15 16 17 23 32 29 25 21 22 21 21 19 20 18 15 18 16 21 21 24 30 25 26 25 27 27 29 30 27 27 22 22 21 21 21 22 24 24 25
4 4 0 4 10 13 15 16 17 18 21 23 26 27 25 25 23 17 16 15 15 12 11 9 9 18 21 26 28 30 31 31 29 30 29 28 25 27 33 28 28 34 31 35
2 2 2 2 2 10 11 9 15 19 21 23 24 26 26 25 26 22 18 18 14 13 12 16 17 20 20 24 30 32 33 34 34 34 34 36 38 38 38 38 38 41 40 42
4 4 5 5 3 7 5 8 8 6 12 16 20 20 21 21 23 18 17 15 15 16 16 19 23 24 27 31 32 31 34 38 42 43 43 43 43 43 42 42 43 43 43 45
7 7 7 5 5 9 7 7 7 9 8 9 7 10 16 12 10 10 13 16 18 20 20 22 24 25 27 28 29 29 32 35 36 37 37 37 37 38 40 43 44 44 45 47
10 8 7 7 7 7 8 8 9 11 10 9 9 12 12 8 8 8 11 13 14 17 20 22 23 24 26 28 29 32 34 36 37 36 36 36 37 39 41 42 44 45 47 48
12 11 9 8 7 6 5 5 7 9 11 11 11 10 10 11 11 13 14 16 17 18 20 22 24 25 27 29 31 32 34 35 37 39 42 45 46 48 49 49 49 49 51 52
11 12 11 11 11 10 9 8 7 6 7 9 9 9 10 11 13 15 16 17 18 20 23 25 26 28 29 31 34 35 37 40 43 44 45 47 48 49 50 52 55 56 58 59
14 11 12 13 12 12 12 11 11 11 9 7 7 7 8 10 11 8 5 6 6 8 9 11 13 15 16 19 21 23 24 26 29 31 33 36 39 42 45 47 49 51 55 57
17 15 15 16 17 15 15 13 10 9 9 8 8 7 7 5 5 5 6 6 6 8 10 12 15 17 19 21 24 27 29 32 35 38 41 43 46 49 51 52 53 54 56 58
22 19 18 18 20 18 18 15 12 13 12 12 10 10 7 5 6 8 10 11 12 14 16 18 20 22 23 24 26 29 32 36 40 43 46 47 49 49 49 50 52 54 57 58
26 24 23 20 23 21 20 17 18 17 15 10 8 6 6 6 7 8 9 11 12 15 17 19 22 23 25 27 30 32 35 39 42 44 45 46 47 48 50 52 54 56 58 59
30 29 26 24 24 25 23 21 22 21 18 13 10 8 5 4 6 8 12 14 17 18 20 22 24 25 27 28 31 35 39 42 41 42 43 44 46 48 50 52 54 56 57 58
35 33 30 27 26 28 27 25 26 25 23 19 16 14 12 11 12 15 17 19 20 22 25 27 28 28 29 31 34 38 41 40 41 41 42 43 44 46 48 50 50 50 47 50
32 32 29 27 28 28 27 27 27 27 25 22 21 20 18 18 18 20 22 24 25 27 29 30 31 32 33 36 39 40 39 38 38 38 40 41 43 44 45 45 42 38 43 42
26 26 24 25 28 29 30 29 28 27 26 25 23 23 24 24 24 25 27 28 29 31 31 31 32 34 36 37 37 37 36 37 36 37 37 38 38 39 39 40 35 32 40 33
26 26 25 25 29 30 30 29 28 27 26 26 26 24 24 25 27 28 29 30 30 32 33 34 35 37 36 36 35 34 36 36 34 35 33 34 34 35 35 36 30 29 32 28
26 28 27 27 29 29 28 28 28 27 27 28 28 27 26 28 29 30 31 32 33 35 37 37 36 36 36 35 35 34 34 34 31 31 30 30 31 32 32 30 23 22 29 30
Wind_Direction
229 227 229 226 228 233 234 233 241 248 227 209 214 178 195 223 243 252 327 239 231 214 210 215 228 226 230 227 232 235 237 241 243 246 249 249 253 251 251 256 249 243 243 239
245 236 234 228 223 230 235 230 238 249 227 204 233 182 199 217 239 235 260 299 190 209 209 214 211 224 221 219 221 236 234 240 242 245 250 255 262 260 263 244 250 242 238 237
258 245 234 231 223 226 227 233 245 245 222 213 209 230 211 224 237 249 250 246 269 322 206 213 211 226 229 231 225 233 233 237 241 242 252 262 256 258 262 250 237 235 231 230
251 246 240 235 230 228 228 238 249 245 234 224 219 210 214 224 233 241 214 224 248 224 224 182 204 223 230 212 234 232 233 238 248 250 255 243 259 256 255 265 239 239 240 234
248 246 247 239 235 229 233 243 247 245 247 233 234 226 220 223 232 243 249 227 223 227 180 176 255 210 209 222 225 232 240 240 242 254 249 256 253 249 249 260 249 239 243 246
269 256 256 228 234 232 241 237 238 239 246 245 223 234 228 233 233 237 236 235 248 253 230 217 224 237 232 224 228 244 246 245 243 240 243 250 242 252 253 253 240 233 234 233
270 266 258 244 221 227 242 226 232 239 243 246 241 237 232 239 238 235 234 235 239 243 253 249 245 244 252 259 264 267 266 249 242 243 254 249 248 247 245 235 251 230 226 229
272 253 252 244 228 236 232 228 234 233 241 237 236 224 217 223 221 233 244 225 234 248 251 256 249 249 252 254 253 253 253 247 254 244 238 252 245 234 232 223 232 227 228 237
285 278 249 242 229 234 218 217 223 223 235 225 233 201 226 234 241 245 257 271 262 263 257 251 253 247 254 254 254 254 251 256 260 265 262 251 237 236 228 220 220 226 234 234
290 325 281 220 212 207 213 215 223 229 236 243 253 256 261 260 270 260 253 250 268 274 274 259 249 249 249 252 254 254 258 259 264 268 262 249 214 237 246 244 269 268 273 282
282 266 336 186 194 199 209 218 224 233 242 250 254 262 269 263 263 257 252 273 272 258 247 277 262 249 253 262 260 261 264 265 262 266 268 270 251 255 284 281 280 283 279 273
55 162 147 99 358 200 186 203 223 231 237 242 249 253 259 262 265 261 271 270 276 264 272 269 256 238 247 249 253 254 253 254 252 258 265 266 271 276 278 277 276 275 271 269
168 158 178 209 199 160 207 219 221 240 234 235 239 242 246 248 255 257 259 249 241 236 245 245 238 244 250 250 249 251 255 257 259 259 264 268 269 272 274 275 275 273 273 273
181 176 179 185 197 212 232 216 206 208 226 231 211 221 223 223 229 226 236 243 245 246 251 251 246 248 251 255 263 270 271 273 275 276 277 279 280 278 279 277 278 278 278 278
195 192 180 176 189 208 218 218 220 216 216 222 220 210 206 204 195 206 227 233 234 238 248 251 257 263 266 267 268 268 271 272 274 276 277 277 277 277 277 278 278 278 278 277
197 200 202 207 210 212 210 198 212 221 223 221 217 204 197 221 229 238 246 249 249 250 249 250 253 257 263 266 268 271 273 275 276 279 281 283 284 285 284 283 282 279 277 276
204 210 213 217 222 221 224 235 251 269 249 227 223 214 212 222 232 239 248 257 263 267 269 268 269 270 271 270 268 269 271 272 273 274 275 276 276 277 277 277 277 278 279 280
219 225 230 229 228 232 235 241 253 262 242 206 198 213 230 239 234 225 233 257 287 304 303 297 294 294 293 295 295 292 290 287 283 283 282 283 282 281 280 279 278 278 278 277
223 227 237 244 241 236 238 245 252 211 189 195 201 215 230 243 259 259 261 273 293 299 303 308 307 309 310 309 307 306 305 302 299 296 293 291 289 287 286 286 286 284 284 283
223 225 232 241 243 238 235 232 224 199 197 196 214 222 232 249 269 276 280 286 288 292 294 297 298 300 300 299 298 299 300 301 300 298 296 296 295 294 293 292 290 289 287 286
226 231 231 238 240 239 227 224 217 210 206 216 218 229 241 263 286 297 307 307 297 290 289 290 293 294 296 300 304 304 302 299 297 298 299 299 299 298 298 297 296 295 295 295
232 233 232 236 234 232 227 225 218 215 214 219 234 240 249 281 299 317 317 311 312 311 308 304 302 299 300 301 301 302 301 299 300 302 303 304 303 303 303 302 302 303 303 300
231 231 231 235 232 230 227 223 221 222 226 231 245 258 265 283 303 312 320 320 313 309 308 305 302 297 296 297 299 300 299 303 305 306 305 305 305 306 306 307 307 304 301 305
228 227 232 233 236 235 229 226 228 229 234 242 250 260 272 284 294 302 305 309 307 305 304 305 303 300 300 300 299 302 304 306 307 306 306 308 309 311 313 311 305 302 315 314
221 225 232 241 235 230 228 230 233 233 239 246 257 263 267 278 290 298 299 300 303 304 304 304 301 299 297 297 299 302 306 307 307 307 309 310 314 317 317 314 306 307 320 320
226 233 240 238 225 225 227 233 237 236 240 248 259 269 273 278 285 291 294 295 298 299 301 302 300 299 299 299 302 305 306 307 307 308 311 316 319 323 326 322 310 311 324 328
239 240 237 233 229 229 235 240 242 238 241 249 259 267 273 276 280 284 288 290 293 296 299 301 300 300 300 301 302 302 301 304 307 310 315 319 324 329 336 332 324 321 328 335
Height
5794 5796 5799 5803 5808 5811 5814 5817 5821 5824 5827 5828 5828 5831 5834 5837 5836 5836 5837 5838 5841 5844 5853 5860 5866 5870 5876 5881 5884 5888 5891 5894 5896 5898 5900 5903 5904 5907 5909 5911 5912 5914 5916 5917
5786 5787 5791 5796 5799 5804 5809 5811 5815 5819 5822 5825 5826 5826 5832 5835 5836 5837 5840 5837 5839 5841 5847 5853 5860 5865 5869 5873 5878 5882 5885 5888 5891 5892 5895 5896 5899 5901 5902 5903 5904 5906 5908 5910
5778 5779 5781 5783 5793 5796 5802 5806 5810 5814 5817 5819 5822 5824 5827 5831 5833 5836 5838 5839 5840 5841 5842 5847 5854 5858 5863 5866 5869 5874 5877 5883 5885 5887 5889 5891 5892 5893 5894 5895 5896 5898 5900 5902
5771 5771 5772 5781 5787 5791 5797 5803 5805 5809 5812 5815 5818 5821 5824 5827 5830 5833 5836 5838 5841 5840 5840 5841 5847 5849 5855 5858 5863 5867 5871 5869 5876 5880 5882 5880 5884 5885 5887 5888 5888 5890 5893 5894
5767 5768 5771 5775 5781 5788 5792 5798 5801 5803 5806 5812 5815 5816 5821 5823 5826 5828 5831 5834 5833 5833 5837 5837 5841 5844 5848 5852 5856 5859 5862 5865 5869 5870 5873 5876 5876 5878 5880 5882 5883 5883 5883 5884
5766 5765 5767 5772 5777 5780 5786 5792 5796 5799 5800 5807 5807 5812 5815 5819 5823 5824 5826 5828 5829 5830 5834 5839 5840 5842 5844 5848 5850 5853 5854 5856 5860 5857 5861 5866 5868 5870 5872 5873 5873 5874 5872 5870
5763 5764 5765 5767 5771 5777 5784 5791 5790 5793 5795 5800 5802 5807 5812 5814 5816 5819 5822 5825 5827 5830 5832 5834 5837 5838 5840 5841 5842 5846 5847 5848 5850 5854 5852 5856 5858 5860 5862 5865 5862 5861 5861 5862
5762 5763 5763 5764 5768 5774 5777 5781 5784 5788 5791 5794 5796 5799 5805 5809 5812 5815 5816 5819 5822 5825 5827 5829 5830 5832 5835 5837 5839 5840 5841 5842 5841 5845 5846 5848 5851 5852 5852 5856 5850 5852 5852 5854
5762 5761 5762 5763 5766 5769 5772 5776 5780 5784 5787 5790 5783 5792 5797 5801 5806 5810 5812 5815 5818 5821 5821 5823 5825 5827 5829 5831 5833 5834 5835 5835 5836 5835 5838 5839 5842 5843 5843 5843 5844 5845 5846 5847
5759 5759 5758 5760 5762 5765 5768 5771 5775 5779 5781 5783 5786 5791 5793 5797 5800 5804 5807 5809 5812 5814 5815 5815 5817 5820 5823 5826 5828 5829 5829 5831 5832 5831 5832 5833 5833 5835 5835 5835 5836 5837 5839 5841
5758 5757 5759 5759 5761 5764 5767 5770 5772 5775 5778 5780 5783 5786 5787 5791 5796 5799 5801 5804 5806 5808 5809 5811 5812 5813 5817 5818 5819 5821 5822 5823 5825 5826 5826 5827 5827 5825 5826 5828 5831 5831 5833 5834
5757 5757 5759 5760 5762 5763 5765 5766 5769 5771 5773 5776 5778 5781 5783 5786 5788 5791 5794 5797 5799 5803 5804 5805 5806 5807 5809 5810 5811 5813 5814 5816 5818 5818 5819 5820 5820 5820 5821 5820 5820 5821 5822 5824
5757 5757 5759 5760 5762 5764 5766 5766 5767 5768 5770 5772 5774 5777 5779 5781 5783 5785 5788 5790 5793 5795 5796 5798 5800 5801 5801 5802 5803 5804 5806 5807 5807 5808 5809 5810 5810 5810 5809 5808 5807 5807 5806 5806
5757 5758 5758 5760 5761 5763 5764 5765 5766 5767 5768 5770 5771 5773 5775 5776 5779 5781 5785 5788 5789 5790 5792 5794 5795 5796 5797 5797 5797 5797 5798 5799 5798 5798 5798 5798 5798 5797 5797 5796 5796 5794 5793 5793
5755 5757 5758 5758 5760 5761 5762 5764 5765 5766 5767 5769 5770 5772 5772 5774 5776 5777 5781 5784 5785 5786 5787 5789 5789 5789 5790 5790 5790 5789 5789 5789 5789 5788 5788 5788 5788 5788 5787 5786 5785 5784 5782 5781
5753 5755 5756 5757 5758 5759 5761 5762 5764 5765 5765 5766 5768 5769 5771 5772 5774 5775 5778 5779 5780 5780 5782 5782 5782 5781 5782 5781 5781 5781 5781 5781 5780 5778 5776 5775 5773 5772 5770 5769 5767 5766 5765 5764
5751 5753 5755 5756 5756 5757 5758 5760 5761 5762 5763 5764 5765 5766 5767 5768 5770 5771 5773 5773 5773 5772 5773 5773 5773 5773 5773 5773 5774 5774 5772 5772 5771 5770 5768 5767 5765 5762 5760 5757 5755 5751 5748 5745
5747 5749 5751 5752 5753 5755 5756 5757 5757 5758 5759 5761 5763 5764 5765 5766 5767 5767 5767 5767 5766 5765 5764 5766 5766 5766 5765 5763 5762 5762 5761 5761 5760 5757 5755 5753 5750 5748 5745 5742 5740 5737 5733 5730
5744 5745 5747 5748 5750 5751 5753 5753 5754 5755 5757 5758 5760 5761 5762 5762 5762 5763 5763 5764 5764 5764 5764 5764 5763 5762 5760 5758 5756 5754 5752 5749 5747 5744 5742 5739 5736 5732 5728 5724 5720 5717 5713 5709
5738 5741 5743 5744 5745 5747 5749 5750 5752 5753 5755 5757 5758 5759 5759 5760 5760 5760 5759 5759 5759 5758 5758 5757 5757 5755 5754 5752 5751 5748 5745 5742 5738 5735 5731 5727 5722 5717 5712 5708 5703 5698 5693 5688
5732 5734 5737 5739 5740 5742 5744 5746 5748 5750 5752 5753 5754 5755 5755 5756 5756 5755 5755 5754 5754 5753 5752 5751 5749 5747 5745 5743 5740 5738 5735 5731 5727 5723 5718 5713 5707 5702 5696 5691 5684 5678 5671 5664
5725 5728 5730 5733 5735 5737 5739 5741 5743 5745 5747 5749 5750 5751 5752 5752 5752 5751 5750 5749 5748 5746 5744 5742 5741 5738 5736 5734 5731 5728 5724 5720 5715 5710 5705 5699 5694 5688 5681 5674 5666 5658 5650 5643
5716 5720 5723 5725 5728 5730 5733 5735 5737 5739 5741 5743 5745 5746 5746 5746 5745 5744 5743 5742 5741 5739 5737 5735 5733 5730 5727 5724 5721 5717 5713 5708 5703 5698 5693 5687 5681 5675 5668 5660 5651 5644 5637 5629
5707 5712 5715 5718 5720 5723 5726 5728 5730 5733 5735 5737 5738 5739 5739 5739 5739 5737 5736 5735 5733 5731 5729 5726 5723 5720 5717 5713 5709 5705 5700 5696 5692 5687 5681 5676 5669 5662 5654 5646 5639 5633 5626 5616
5701 5705 5708 5710 5713 5715 5718 5721 5723 5726 5728 5730 5731 5732 5732 5732 5731 5730 5728 5727 5725 5723 5720 5717 5714 5710 5706 5702 5698 5694 5689 5685 5681 5676 5671 5665 5659 5652 5644 5636 5629 5623 5616 5607
5696 5699 5701 5703 5705 5708 5711 5714 5716 5719 5721 5722 5723 5724 5724 5723 5722 5721 5720 5718 5716 5713 5710 5706 5702 5698 5694 5691 5687 5684 5680 5676 5672 5667 5662 5657 5650 5643 5634 5626 5619 5615 5610 5602
5689 5691 5693 5696 5699 5701 5704 5707 5709 5711 5713 5714 5715 5715 5715 5715 5713 5712 5711 5709 5706 5703 5700 5696 5692 5687 5684 5680 5677 5673 5670 5667 5662 5658 5654 5649 5643 5636 5628 5620 5613 5610 5605 5598